[keps] orb08178.2l.amsat
Ray Hoad
r.hoad at att.net
Thu Jun 26 20:48:48 PDT 2008
SB KEPS @ AMSAT $ORB08178.N
2Line Orbital Elements 08178.AMSAT
HR AMSAT ORBITAL ELEMENTS FOR AMATEUR SATELLITES IN NASA FORMAT
FROM WA5QGD FORT WORTH,TX June 26, 2008
Send Subscribe/unsubscribe to KEPS at
http://www.amsat.org/mailman/listinfo/keps
BID: ORB08178.N
DECODE 2-LINE ELSETS WITH THE FOLLOWING KEY:
1 AAAAAU 00 0 0 BBBBB.BBBBBBBB .CCCCCCCC 00000-0 00000-0 0 DDDZ
2 AAAAA EEE.EEEE FFF.FFFF GGGGGGG HHH.HHHH III.IIII JJ.JJJJJJJJKKKKKZ
KEY: A-CATALOGNUM B-EPOCHTIME C-DECAY D-ELSETNUM E-INCLINATION F-RAAN
G-ECCENTRICITY H-ARGPERIGEE I-MNANOM J-MNMOTION K-ORBITNUM Z-CHECKSUM
TO ALL RADIO AMATEURS BT
AO-07
1 07530U 74089B 08178.55112313 -.00000027 00000-0 10000-3 0 2119
2 07530 101.4641 209.7337 0011631 243.9327 116.0550 12.53573805538156
AO-10
1 14129U 83058B 08177.48374017 -.00000046 00000-0 10000-3 0 05225
2 14129 025.9773 208.6393 5981167 134.9841 292.8543 02.05869584188276
UO-11
1 14781U 84021B 08178.65306659 .00000696 00000-0 10000-3 0 7049
2 14781 098.1518 212.8274 0010031 047.2670 312.9319 14.79653090305259
RS-15
1 23439U 94085A 08177.97163901 -.00000039 00000-0 10000-3 0 01276
2 23439 064.8157 120.8421 0147502 121.3048 240.2434 11.27552261555950
FO-29
1 24278U 96046B 08177.84809340 -.00000001 00000-0 35685-4 0 08124
2 24278 098.5851 093.0066 0350561 193.0318 166.1581 13.52937898585562
SO-33
1 25509U 98061B 08178.48747820 -.00000039 00000-0 -18887-4 0 2273
2 25509 031.4293 263.7665 0354667 108.5680 255.3763 14.28216004504940
AO-40
1 26609U 00072B 08177.56746954 -.00000060 00000-0 10000-3 0 836
2 26609 007.5920 075.8323 7916450 094.8463 348.4822 01.25585010 35143
VO-52
1 28650U 05017B 08178.32182156 -.00000030 00000-0 27828-5 0 9655
2 28650 097.7897 244.6828 0028333 110.1917 250.2320 14.81476397169957
PO-63
1 29712U 07001D 08178.75571251 .00000462 00000-0 67536-4 0 5647
2 29712 097.8744 236.7626 0014262 356.2064 003.9033 14.80194389 78881
AO-16
1 20439U 90005D 08178.43512088 -.00000020 00000-0 78052-5 0 3531
2 20439 098.2299 158.0248 0011366 144.7598 215.4337 14.31796619962247
LO-19
1 20442U 90005G 08178.62064021 .00000001 00000-0 15466-4 0 2812
2 20442 098.2002 166.7070 0012439 142.3484 217.8558 14.32035138962426
AO-27
1 22825U 93061C 08177.46156751 -.00000008 00000-0 13172-4 0 00028
2 22825 098.3851 137.1737 0007654 233.0594 126.9898 14.29241288768951
IO-26
1 22826U 93061D 08178.77408770 -.00000012 00000-0 11596-4 0 7070
2 22826 098.3772 139.3415 0008142 226.1728 133.8782 14.29490481769238
PO-28
1 22829U 93061G 08178.47606885 .00000007 00000-0 18987-4 0 9781
2 22829 098.3655 140.1575 0009456 196.4060 163.6809 14.30191848769457
GO-32
1 25397U 98043D 08177.68801031 .00000041 00000-0 36505-4 0 6311
2 25397 098.3627 212.4308 0000953 167.5430 192.5774 14.23145437517424
NO-44
1 26931U 01043C 08177.75135076 .00000101 00000-0 71664-4 0 09121
2 26931 067.0531 262.5938 0006961 272.7126 087.3200 14.29526455351630
SO-50
1 27607U 02058C 08177.57036614 .00000062 00000-0 31594-4 0 06364
2 27607 064.5594 028.1810 0085863 277.8703 081.2665 14.71364875296204
CO-55
1 27844U 03031E 08177.74789094 .00000033 00000-0 35817-4 0 3362
2 27844 098.7141 185.8947 0010974 090.0170 270.2252 14.20585255258650
CO-57
1 27848U 03031J 08177.60624624 .00000031 00000-0 34893-4 0 2874
2 27848 098.7150 184.8500 0010659 093.3872 266.8525 14.20393917258604
AO-51
1 28375U 04025K 08177.59192204 .00000011 00000-0 15716-4 0 1326
2 28375 098.0699 201.6893 0084373 126.6226 234.2762 14.40611873209616
CO-56
1 28941U 06005C 08178.51532985 .00022147 25964-5 16304-3 0 1645
2 28941 098.1076 290.5010 0163926 007.6356 352.7331 15.57696816131494
CP4
1 31122U 07012F 08177.89490479 .00000549 00000-0 13192-3 0 03746
2 31122 098.0412 243.1651 0084094 302.0018 057.2984 14.55136551063343
CP3
1 31128U 07012M 08177.94916730 -.00000048 00000-0 00000-0 0 03668
2 31128 098.0366 241.0157 0101966 308.2533 050.9525 14.51954947063202
NOAA-10
1 16969U 86073A 08178.12731561 -.00000146 00000-0 -41518-4 0 1713
2 16969 098.7205 200.0785 0012583 151.5600 208.6271 14.27361837132715
NOAA-11
1 19531U 88089A 08178.29018312 .00000206 00000-0 12929-3 0 2113
2 19531 098.7977 267.4890 0012212 045.4308 314.7856 14.14873283 19191
NOAA-12
1 21263U 91032A 08178.46685425 .00000112 00000-0 66216-4 0 7271
2 21263 098.7653 180.4168 0013517 098.0007 262.2719 14.25537280889712
MET-3/5
1 21655U 91056A 08177.92964552 .00000051 00000-0 10000-3 0 04901
2 21655 082.5564 098.2113 0013676 357.4219 002.6828 13.17014634810734
MET-2/21
1 22782U 93055A 08177.81472318 .00000093 00000-0 71349-4 0 01802
2 22782 082.5483 104.7371 0020882 266.6332 093.2422 13.83630809748321
OKEAN-4
1 23317U 94066A 08178.70797359 .00000034 00000-0 12106-5 0 6249
2 23317 082.5406 306.1841 0024083 095.2866 265.1098 14.82619314739693
NOAA-14
1 23455U 94089A 08178.46538984 .00000279 00000-0 17141-3 0 1953
2 23455 098.9458 250.7137 0010295 116.6350 243.5902 14.13745470695661
SICH-1
1 23657U 95046A 08178.73811164 .00000298 00000-0 34659-4 0 4223
2 23657 082.5278 087.1475 0025835 088.0724 272.3459 14.81588620691631
NOAA-15
1 25338U 98030A 08178.41710759 .00000067 00000-0 47117-4 0 5150
2 25338 098.5533 170.0397 0011090 020.9149 339.2480 14.24710305526110
RESURS
1 25394U 98043A 08178.66385484 .00000005 00000-0 20125-4 0 9602
2 25394 098.3880 222.1924 0001529 132.4172 227.7133 14.24162989517790
FENGYUN1
1 25730U 99025A 08177.94214206 .00000204 00000-0 14528-3 0 04762
2 25730 098.7218 153.4303 0021004 140.2770 219.9942 14.07695704470191
OKEAN-0
1 25860U 99039A 08177.60473164 .00000005 00000-0 79297-5 0 04039
2 25860 097.7492 167.7788 0000538 077.5026 282.6234 14.73526318480636
NOAA-16
1 26536U 00055A 08178.41589406 -.00000251 00000-0 -11076-3 0 9878
2 26536 099.1561 167.7940 0010160 194.6722 165.4165 14.12485378400070
NOAA-17
1 27453U 02032A 08178.46796945 .00000027 00000-0 30431-4 0 9783
2 27453 098.5330 242.8256 0012901 082.4890 277.7747 14.23983602312122
NOAA-18
1 28654U 05018A 08178.48283433 -.00000098 00000-0 -29881-4 0 4792
2 28654 098.8671 119.2988 0013381 290.2309 069.7427 14.11171336159788
HUBBLE
1 20580U 90037B 08177.65857160 .00000292 00000-0 97419-5 0 1647
2 20580 028.4700 267.9702 0003793 116.1250 243.9730 15.00389079796258
PO-34
1 25520U 98064B 08177.94527619 .00000252 00000-0 26834-5 0 00243
2 25520 028.4594 120.1476 0005025 019.9803 340.0990 15.17203722534491
ISS
1 25544U 98067A 08178.55860882 .00009076 00000-0 64492-4 0 7412
2 25544 051.6417 328.1724 0008295 296.2810 151.1603 15.74752330550009
CO-58
1 28895U 05043F 08178.23745242 .00000114 00000-0 33493-4 0 541
2 28895 098.0971 072.0264 0018426 024.5315 335.6729 14.59678785141809
NCUBE2
1 28897U 05043H 08177.65259917 .00000105 00000-0 31512-4 0 05867
2 28897 098.0957 071.3849 0018010 027.4511 332.7652 14.59849704134003
FCAL
1 29667U 06055J 08146.34060426 .11864717 12752-4 73624-4 0 9790
2 29667 051.6107 065.3702 0009039 260.8350 099.5042 16.53464210 82911
FALCON
1 30776U 07006E 08177.94420597 .00000232 00000-0 19960-4 0 03438
2 30776 035.4331 100.3822 0000768 034.1706 325.9065 15.03009631071468
MAST
1 31126U 07012K 08177.57119496 .00000206 00000-0 57737-4 0 03601
2 31126 098.0380 241.6704 0093944 306.4845 052.7738 14.53431077063237
CAPE1
1 31130U 07012P 08177.73712302 -.00000082 00000-0 -78910-5 0 3385
2 31130 098.0370 240.8194 0101791 308.9975 050.2187 14.51970694 62967
CUTE1-7
1 32785U 08021C 08177.42765404 -.00000086 00000-0 -41325-5 0 00875
2 32785 097.9911 237.3283 0016356 108.7041 251.5982 14.81368952008628
COMPASS
1 32787U 08021E 08177.22306055 .00000227 00000-0 35883-4 0 00762
2 32787 097.9885 237.0947 0016912 109.4000 250.9036 14.81425798008596
AAUSAT2
1 32788U 08021F 08177.89422281 .00000070 00000-0 15780-4 0 00834
2 32788 097.9892 237.7739 0016922 108.5570 251.7469 14.81534616008694
DO-64
1 32789U 08021G 08177.96688599 .00000088 00000-0 18077-4 0 00953
2 32789 097.9907 237.8561 0017123 107.3039 253.0044 14.81413964008705
SEEDS
1 32791U 08021J 08178.71461257 -.00000021 00000-0 42737-5 0 746
2 32791 097.9925 238.5920 0017496 103.2968 257.0195 14.81283936 8787
CANX-2
1 32797U 08021L 08177.95742834 .00002070 00000-0 26837-3 0 00375
2 32797 097.9957 237.8884 0019143 112.4417 247.8820 14.81774014007380
RS-30
1 32953U 08025A 08177.45884098 .00000010 00000-0 00000-0 0 00415
2 32953 082.5014 118.4434 0017522 236.4208 123.5195 12.42996896004074
/EX
More information about the Keps
mailing list